H1 CPF 2 NER 2023 5 20 9 140 01 glonass133 H2 1403201 9133 40001 2023 5 20 0 0 0 2023 5 23 23 45 0 900 1 1 0 0 0 1 H9 10 0 60084 0.00000 0 14182593.565 -13325737.753 -16483643.718 10 0 60084 900.00000 0 13229888.563 -11374027.444 -18604326.688 10 0 60084 1800.00000 0 12352509.458 -9129698.443 -20363554.348 10 0 60084 2700.00000 0 11599177.750 -6639906.607 -21727250.350 10 0 60084 3600.00000 0 11009902.026 -3961332.736 -22669034.741 10 0 60084 4500.00000 0 10614260.210 -1158062.914 -23170726.712 10 0 60084 5400.00000 0 10430139.388 1700836.146 -23222688.014 10 0 60084 6300.00000 0 10462985.247 4543946.560 -22824001.312 10 0 60084 7200.00000 0 10705591.723 7300225.080 -21982480.782 10 0 60084 8100.00000 0 11138438.925 9901713.149 -20714515.381 10 0 60084 9000.00000 0 11730564.531 12286119.897 -19044748.055 10 0 60084 9900.00000 0 12440931.718 14399172.112 -17005597.203 10 0 60084 10800.00000 0 13220236.060 16196634.919 -14636629.410 10 0 60084 11700.00000 0 14013075.572 17645920.451 -11983795.215 10 0 60084 12600.00000 0 14760392.861 18727218.749 -9098542.229 10 0 60084 13500.00000 0 15402086.957 19434104.851 -6036822.217 10 0 60084 14400.00000 0 15879685.140 19773597.688 -2858010.871 10 0 60084 15300.00000 0 16138962.346 19765669.128 376239.185 10 0 60084 16200.00000 0 16132397.801 19442224.341 3603190.253 10 0 60084 17100.00000 0 15821365.077 18845596.763 6760233.388 10 0 60084 18000.00000 0 15177962.768 18026621.174 9786100.700 10 0 60084 18900.00000 0 14186407.892 17042366.090 12622052.657 10 0 60084 19800.00000 0 12843932.302 15953620.932 15213017.366 10 0 60084 20700.00000 0 11161143.120 14822243.714 17508659.647 10 0 60084 21600.00000 0 9161830.571 13708480.831 19464359.198 10 0 60084 22500.00000 0 6882229.633 12668371.618 21042078.878 10 0 60084 23400.00000 0 4369764.767 11751346.891 22211106.259 10 0 60084 24300.00000 0 1681328.491 10998122.399 22948654.063 10 0 60084 25200.00000 0 -1118835.930 10438975.849 23240307.789 10 0 60084 26100.00000 0 -3961560.819 10092480.111 23080311.634 10 0 60084 27000.00000 0 -6775389.626 9964746.045 22471686.890 10 0 60084 27900.00000 0 -9489312.963 10049207.122 21426180.085 10 0 60084 28800.00000 0 -12035491.961 10326955.237 19964041.312 10 0 60084 29700.00000 0 -14351856.054 10767613.882 18113636.451 10 0 60084 30600.00000 0 -16384467.293 11330712.192 15910900.143 10 0 60084 31500.00000 0 -18089552.722 11967502.030 13398639.644 10 0 60084 32400.00000 0 -19435120.059 12623141.389 10625702.663 10 0 60084 33300.00000 0 -20402089.287 13239151.616 7646025.189 10 0 60084 34200.00000 0 -20984893.027 13756044.045 4517577.956 10 0 60084 35100.00000 0 -21191520.976 14116004.216 1301232.454 10 0 60084 36000.00000 0 -21043007.265 14265519.182 -1940430.842 10 0 60084 36900.00000 0 -20572383.249 14157835.700 -5144347.899 10 0 60084 37800.00000 0 -19823140.959 13755144.258 -8248205.448 10 0 60084 38700.00000 0 -18847273.255 13030395.618 -11191659.243 10 0 60084 39600.00000 0 -17702974.543 11968672.275 -13917511.696 10 0 60084 40500.00000 0 -16452100.188 10568056.268 -16372825.467 10 0 60084 41400.00000 0 -15157492.584 8839956.229 -18509951.079 10 0 60084 42300.00000 0 -13880287.153 6808879.539 -20287448.679 10 0 60084 43200.00000 0 -12677311.873 4511658.786 -21670886.445 10 0 60084 44100.00000 0 -11598689.465 1996164.598 -22633500.883 10 0 60084 45000.00000 0 -10685742.471 -680441.727 -23156707.042 10 0 60084 45900.00000 0 -9969288.246 -3453843.396 -23230449.736 10 0 60084 46800.00000 0 -9468394.313 -6255002.852 -22853389.911 10 0 60084 47700.00000 0 -9189645.104 -9012795.571 -22032923.323 10 0 60084 48600.00000 0 -9126949.641 -11656734.465 -20785031.782 10 0 60084 49500.00000 0 -9261897.194 -14119672.844 -19133970.118 10 0 60084 50400.00000 0 -9564645.152 -16340374.826 -17111795.031 10 0 60084 51300.00000 0 -9995301.249 -18265847.594 -14757744.737 10 0 60084 52200.00000 0 -10505741.739 -19853339.712 -12117481.020 10 0 60084 53100.00000 0 -11041788.955 -21071923.370 -9242207.896 10 0 60084 54000.00000 0 -11545656.618 -21903595.603 -6187683.417 10 0 60084 54900.00000 0 -11958560.047 -22343853.319 -3013143.223 10 0 60084 55800.00000 0 -12223381.284 -22401718.784 219843.694 10 0 60084 56700.00000 0 -12287276.781 -22099214.998 3448565.164 10 0 60084 57600.00000 0 -12104117.433 -21470313.306 6610379.076 10 0 60084 58500.00000 0 -11636657.644 -20559397.632 9643926.235 10 0 60084 59400.00000 0 -10858341.281 -19419309.896 12490319.333 10 0 60084 60300.00000 0 -9754667.486 -18109058.739 15094284.978 10 0 60084 61200.00000 0 -8324057.628 -16691287.715 17405236.592 10 0 60084 62100.00000 0 -6578185.513 -15229609.203 19378257.357 10 0 60084 63000.00000 0 -4541755.339 -13785915.831 20974974.198 10 0 60084 63900.00000 0 -2251734.942 -12417782.132 22164305.815 10 0 60084 64800.00000 0 243925.355 -11176065.346 22923070.289 10 0 60084 65700.00000 0 2888036.562 -10102805.888 23236440.387 10 0 60084 66600.00000 0 5616306.338 -9229515.525 23098237.555 10 0 60084 67500.00000 0 8359778.221 -8575925.034 22511058.599 10 0 60084 68400.00000 0 11047474.373 -8149243.928 21486232.158 10 0 60084 69300.00000 0 13609132.584 -7943963.371 20043605.245 10 0 60084 70200.00000 0 15977924.168 -7942210.584 18211163.393 10 0 60084 71100.00000 0 18093039.759 -8114639.805 16024491.121 10 0 60084 72000.00000 0 19902035.242 -8421822.151 13526082.665 10 0 60084 72900.00000 0 21362839.804 -8816075.489 10764515.974 10 0 60084 73800.00000 0 22445342.075 -9243656.603 7793505.825 10 0 60084 74700.00000 0 23132487.900 -9647222.365 4670854.635 10 0 60084 75600.00000 0 23420843.862 -9968454.943 1457321.756 10 0 60084 76500.00000 0 23320603.270 -10150738.961 -1784566.124 10 0 60084 77400.00000 0 22855034.975 -10141776.134 -4991739.386 10 0 60084 78300.00000 0 22059399.056 -9896025.595 -8101819.980 10 0 60084 79200.00000 0 20979376.100 -9376865.545 -11054341.031 10 0 60084 80100.00000 0 19669077.330 -8558383.867 -13791926.994 10 0 60084 81000.00000 0 18188720.490 -7426721.239 -16261410.844 10 0 60084 81900.00000 0 16602070.255 -5980909.456 -18414866.319 10 0 60084 82800.00000 0 14973751.542 -4233169.131 -20210535.190 10 0 60084 83700.00000 0 13366548.949 -2208653.861 -21613631.979 10 0 60084 84600.00000 0 11838805.652 55348.825 -22597011.185 10 0 60084 85500.00000 0 10442030.398 2510726.676 -23141684.929 10 0 60085 0.00000 0 9218812.129 5100307.662 -23237181.982 10 0 60085 900.00000 0 8201127.789 7760009.088 -22881742.119 10 0 60085 1800.00000 0 7409114.431 10421278.628 -22082342.807 10 0 60085 2700.00000 0 6850353.401 13013731.251 -20854558.494 10 0 60085 3600.00000 0 6519696.862 15467869.962 -19222255.315 10 0 60085 4500.00000 0 6399641.982 17717779.708 -17217127.327 10 0 60085 5400.00000 0 6461236.209 19703683.258 -14878083.057 10 0 60085 6300.00000 0 6665474.803 21374253.803 -12250493.847 10 0 60085 7200.00000 0 6965131.433 22688588.889 -9385318.076 10 0 60085 8100.00000 0 7306944.489 23617764.221 -6338117.698 10 0 60085 9000.00000 0 7634066.905 24145903.183 -3167985.602 10 0 60085 9900.00000 0 7888676.163 24270717.852 63595.803 10 0 60085 10800.00000 0 8014634.318 24003499.250 3293942.985 10 0 60085 11700.00000 0 7960085.621 23368557.440 6460383.875 10 0 60085 12600.00000 0 7679881.802 22402135.000 9501471.168 10 0 60085 13500.00000 0 7137732.121 21150839.423 12358172.877 10 0 60085 14400.00000 0 6307986.749 19669660.034 14975017.070 10 0 60085 15300.00000 0 5176977.243 18019652.452 17301168.504 10 0 60085 16200.00000 0 3743856.422 16265387.438 19291416.337 10 0 60085 17100.00000 0 2020900.749 14472270.820 20907053.754 10 0 60085 18000.00000 0 33260.865 12703846.526 22116632.448 10 0 60085 18900.00000 0 -2181831.133 11019195.423 22896577.326 10 0 60085 19800.00000 0 -4576366.335 9470538.603 23231649.457 10 0 60085 20700.00000 0 -7093322.793 8101145.244 23115248.078 10 0 60085 21600.00000 0 -9668816.453 6943632.428 22549545.501 10 0 60085 22500.00000 0 -12234550.841 6018727.915 21545451.893 10 0 60085 23400.00000 0 -14720464.423 5334547.565 20122410.017 10 0 60085 24300.00000 0 -17057465.966 4886417.496 18308023.322 10 0 60085 25200.00000 0 -19180144.198 4657248.175 16137523.941 10 0 60085 26100.00000 0 -21029338.740 4618444.373 13653090.396 10 0 60085 27000.00000 0 -22554464.753 4731312.165 10903027.846 10 0 60085 27900.00000 0 -23715493.839 4948903.010 7940826.628 10 0 60085 28800.00000 0 -24484507.892 5218216.235 4824117.515 10 0 60085 29700.00000 0 -24846760.607 5482665.822 1613544.394 10 0 60085 30600.00000 0 -24801202.048 5684706.042 -1628423.061 10 0 60085 31500.00000 0 -24360444.486 5768503.543 -4838712.763 10 0 60085 32400.00000 0 -23550171.424 5682541.545 -7954884.826 10 0 60085 33300.00000 0 -22408015.456 5382044.721 -10916352.512 10 0 60085 34200.00000 0 -20981953.027 4831121.092 -13665564.859 10 0 60085 35100.00000 0 -19328284.668 4004529.496 -16149127.430 10 0 60085 36000.00000 0 -17509286.457 2888997.299 -18318839.106 10 0 60085 36900.00000 0 -15590632.157 1484032.229 -20132624.813 10 0 60085 37800.00000 0 -13638694.619 -197806.253 -21555346.479 10 0 60085 38700.00000 0 -11717839.639 -2131187.830 -22559477.157 10 0 60085 39600.00000 0 -9887825.252 -4278833.048 -23125626.100 10 0 60085 40500.00000 0 -8201414.520 -6592841.927 -23242905.575 10 0 60085 41400.00000 0 -6702300.476 -9016474.544 -22909133.261 10 0 60085 42300.00000 0 -5423428.587 -11486309.964 -22130867.100 10 0 60085 43200.00000 0 -4385785.269 -13934694.384 -20923272.544 10 0 60085 44100.00000 0 -3597701.470 -16292377.468 -19309825.112 10 0 60085 45000.00000 0 -3054698.920 -18491228.108 -17321854.091 10 0 60085 45900.00000 0 -2739884.105 -20466917.528 -14997936.061 10 0 60085 46800.00000 0 -2624872.242 -22161458.949 -12383149.590 10 0 60085 47700.00000 0 -2671201.627 -23525498.779 -9528205.092 10 0 60085 48600.00000 0 -2832178.210 -24520264.467 -6488466.143 10 0 60085 49500.00000 0 -3055072.368 -25119088.221 -3322880.691 10 0 60085 50400.00000 0 -3283575.027 -25308443.231 -92842.469 10 0 60085 51300.00000 0 -3460409.391 -25088449.248 3138995.644 10 0 60085 52200.00000 0 -3529987.839 -24472826.347 6309933.557 10 0 60085 53100.00000 0 -3441001.586 -23488298.713 9358437.750 10 0 60085 54000.00000 0 -3148833.383 -22173473.219 12225333.418 10 0 60085 54900.00000 0 -2617690.805 -20577239.447 14854951.884 10 0 60085 55800.00000 0 -1822369.343 -18756757.872 17196210.966 10 0 60085 56700.00000 0 -749569.909 -16775120.043 19203607.382 10 0 60085 57600.00000 0 601286.032 -14698778.289 20838101.966 10 0 60085 58500.00000 0 2217779.498 -12594852.065 22067880.553 10 0 60085 59400.00000 0 4074768.550 -10528423.159 22868975.750 10 0 60085 60300.00000 0 6135204.658 -8559932.391 23225737.488 10 0 60085 61200.00000 0 8351458.504 -6742786.255 23131143.042 10 0 60085 62100.00000 0 10667101.457 -5121273.126 22586940.187 10 0 60085 63000.00000 0 13019069.812 -3728875.829 21603620.292 10 0 60085 63900.00000 0 15340122.590 -2587050.808 20200221.288 10 0 60085 64800.00000 0 17561491.128 -1704524.664 18403963.722 10 0 60085 65700.00000 0 19615610.330 -1077137.128 16249726.303 10 0 60085 66600.00000 0 21438817.546 -688236.571 13779370.563 10 0 60085 67500.00000 0 22973906.061 -509610.786 11040927.359 10 0 60085 68400.00000 0 24172425.939 -502913.095 8087660.817 10 0 60085 69300.00000 0 24996635.295 -621522.668 4977028.030 10 0 60085 70200.00000 0 25421019.679 -812759.416 1769555.151 10 0 60085 71100.00000 0 25433315.433 -1020358.578 -1472347.661 10 0 60085 72000.00000 0 25034993.854 -1187098.988 -4685608.468 10 0 60085 72900.00000 0 24241185.955 -1257472.434 -7807728.228 10 0 60085 73800.00000 0 23080051.357 -1180279.841 -10778002.983 10 0 60085 74700.00000 0 21591618.458 -911043.250 -13538708.872 10 0 60085 75600.00000 0 19826145.387 -414130.630 -16036226.391 10 0 60085 76500.00000 0 17842071.340 335497.010 -18222081.707 10 0 60085 77400.00000 0 15703644.974 1350990.508 -20053884.834 10 0 60085 78300.00000 0 13478329.718 2632824.378 -21496146.825 10 0 60085 79200.00000 0 11234094.765 4168549.052 -22520960.800 10 0 60085 80100.00000 0 9036704.848 5933094.200 -23108534.424 10 0 60085 81000.00000 0 6947121.356 7889610.716 -23247564.505 10 0 60085 81900.00000 0 5019122.273 9990816.564 -22935447.377 10 0 60085 82800.00000 0 3297238.916 12180790.764 -22178321.834 10 0 60085 83700.00000 0 1815093.958 14397141.294 -20990944.377 10 0 60085 84600.00000 0 594208.384 16573457.303 -19396399.569 10 0 60085 85500.00000 0 -356674.516 18641944.226 -17425651.196 10 0 60086 0.00000 0 -1041721.443 20536132.669 -15116942.974 10 0 60086 900.00000 0 -1477593.914 22193549.937 -12515058.772 10 0 60086 1800.00000 0 -1692503.406 23558240.959 -9670459.341 10 0 60086 2700.00000 0 -1724778.599 24583037.344 -6638307.648 10 0 60086 3600.00000 0 -1621004.765 25231477.579 -3477404.159 10 0 60086 4500.00000 0 -1433814.487 25479299.326 -249051.146 10 0 60086 5400.00000 0 -1219423.122 25315441.228 2984132.146 10 0 60086 6300.00000 0 -1035013.221 24742512.089 6159420.697 10 0 60086 7200.00000 0 -936078.540 23776707.506 9215197.904 10 0 60086 8100.00000 0 -973840.107 22447176.976 12092149.247 10 0 60086 9000.00000 0 -1192843.849 20794867.491 14734412.314 10 0 60086 9900.00000 0 -1628841.749 18870891.433 17090660.841 10 0 60086 10800.00000 0 -2307046.731 16734486.488 19115101.766 10 0 60086 11700.00000 0 -3240835.825 14450652.205 20768366.008 10 0 60086 12600.00000 0 -4430957.483 12087561.399 22018275.677 10 0 60086 13500.00000 0 -5865277.829 9713853.895 22840472.866 10 0 60086 14400.00000 0 -7519078.125 7395924.964 23218897.752 10 0 60086 15300.00000 0 -9355892.680 5195321.126 23146106.550 10 0 60086 16200.00000 0 -11328853.726 3166351.462 22623422.862 10 0 60086 17100.00000 0 -13382488.535 1354013.674 21660919.025 10 0 60086 18000.00000 0 -15454894.865 -207678.931 20277227.294 10 0 60086 18900.00000 0 -17480204.719 -1496900.027 18499183.844 10 0 60086 19800.00000 0 -19391233.990 -2504692.621 16361311.897 10 0 60086 20700.00000 0 -21122207.324 -3235103.092 13905153.420 10 0 60086 21600.00000 0 -22611443.966 -3704762.002 11178461.961 10 0 60086 22500.00000 0 -23803891.648 -3941930.109 8234272.106 10 0 60086 23400.00000 0 -24653401.584 -3985050.760 5129863.753 10 0 60086 24300.00000 0 -25124648.390 -3880870.885 1925641.707 10 0 60086 25200.00000 0 -25194613.630 -3682211.234 -1316046.978 10 0 60086 26100.00000 0 -24853570.107 -3445481.537 -4532134.023 10 0 60086 27000.00000 0 -24105525.241 -3228047.106 -7660064.608 10 0 60086 27900.00000 0 -22968104.885 -3085559.706 -10639020.738 10 0 60086 28800.00000 0 -21471882.719 -3069366.847 -13411108.612 10 0 60086 29700.00000 0 -19659183.846 -3224110.147 -15922486.317 10 0 60086 30600.00000 0 -17582413.366 -3585615.017 -18124409.595 10 0 60086 31500.00000 0 -15301980.595 -4179161.379 -19974175.374 10 0 60086 32400.00000 0 -12883906.278 -5018208.605 -21435945.128 10 0 60086 33300.00000 0 -10397213.051 -6103628.600 -22481432.729 10 0 60086 34200.00000 0 -7911208.026 -7423479.340 -23090444.321 10 0 60086 35100.00000 0 -5492770.391 -8953328.481 -23251260.694 10 0 60086 36000.00000 0 -3203756.149 -10657113.682 -22960855.724 10 0 60086 36900.00000 0 -1098626.959 -12488503.913 -22224947.442 10 0 60086 37800.00000 0 777599.702 -14392705.276 -21057881.375 10 0 60086 38700.00000 0 2390995.325 -16308636.522 -19482348.796 10 0 60086 39600.00000 0 3719893.303 -18171384.045 -17528945.419 10 0 60086 40500.00000 0 4755542.793 -19914834.606 -15235578.947 10 0 60086 41400.00000 0 5502217.840 -21474376.591 -12646736.587 10 0 60086 42300.00000 0 5976778.590 -22789557.530 -9812626.246 10 0 60086 43200.00000 0 6207704.207 -23806587.332 -6788207.534 10 0 60086 44100.00000 0 6233639.041 -24480582.861 -3632130.784 10 0 60086 45000.00000 0 6101513.870 -24777459.983 -405604.278 10 0 60086 45900.00000 0 5864321.847 -24675393.787 2828788.734 10 0 60086 46800.00000 0 5578643.246 -24165785.490 6008300.507 10 0 60086 47700.00000 0 5302023.707 -23253695.034 9071233.373 10 0 60086 48600.00000 0 5090316.865 -21957720.622 11958134.930 10 0 60086 49500.00000 0 4995103.872 -20309329.493 14612950.668 10 0 60086 50400.00000 0 5061299.068 -18351667.144 16984111.658 10 0 60086 51300.00000 0 5325043.398 -16137893.957 19025536.240 10 0 60086 52200.00000 0 5811975.097 -13729117.849 20697526.315 10 0 60086 53100.00000 0 6535951.434 -11192008.475 21967540.880 10 0 60086 54000.00000 0 7498276.436 -8596191.681 22810831.811 10 0 60086 54900.00000 0 8687468.409 -6011532.083 23210929.511 10 0 60086 55800.00000 0 10079578.444 -3505416.367 23159968.820 10 0 60086 56700.00000 0 11639048.021 -1140149.876 22658848.568 10 0 60086 57600.00000 0 13320071.244 1029425.569 21717221.237 10 0 60086 58500.00000 0 15068405.828 2957993.766 20353312.357 10 0 60086 59400.00000 0 16823558.030 4611420.556 18593572.529 10 0 60086 60300.00000 0 18521250.650 5967935.871 16472168.131 10 0 60086 61200.00000 0 20096070.964 7018792.450 14030320.059 10 0 60086 62100.00000 0 21484187.479 7768374.285 11315502.913 10 0 60086 63000.00000 0 22626021.102 8233751.023 8380519.954 10 0 60086 63900.00000 0 23468757.883 8443698.024 5282471.947 10 0 60086 64800.00000 0 23968596.861 8437224.489 2081640.273 10 0 60086 65700.00000 0 24092637.690 8261673.061 -1159693.313 10 0 60086 66600.00000 0 23820327.779 7970472.587 -4378466.462 10 0 60086 67500.00000 0 23144407.493 7620640.482 -7512070.840 10 0 60086 68400.00000 0 22071313.248 7270141.790 -10499576.625 10 0 60086 69300.00000 0 20621021.438 6975217.926 -13282922.167 10 0 60086 70200.00000 0 18826339.882 6787799.177 -15808045.068 10 0 60086 71100.00000 0 16731676.764 6753111.159 -18025932.393 10 0 60086 72000.00000 0 14391339.085 6907576.856 -19893569.562 10 0 60086 72900.00000 0 11867432.099 7277103.025 -21374769.885 10 0 60086 73800.00000 0 9227447.731 7875823.202 -22440869.269 10 0 60086 74700.00000 0 6541642.510 8705350.142 -23071273.469 10 0 60086 75600.00000 0 3880313.948 9754568.928 -23253848.229 10 0 60086 76500.00000 0 1311087.982 10999979.346 -22985145.708 10 0 60086 77400.00000 0 -1103670.660 12406573.151 -22270463.642 10 0 60086 78300.00000 0 -3309218.858 13929209.658 -21123736.727 10 0 60086 79200.00000 0 -5260469.633 15514432.374 -19567262.716 10 0 60086 80100.00000 0 -6923617.832 17102651.170 -17631268.631 10 0 60086 81000.00000 0 -8277290.949 18630599.228 -15353325.383 10 0 60086 81900.00000 0 -9313178.799 20033962.623 -12777621.740 10 0 60086 82800.00000 0 -10036117.201 21250073.022 -9954111.273 10 0 60086 83700.00000 0 -10463623.546 22220551.219 -6937548.258 10 0 60086 84600.00000 0 -10624904.794 22893791.080 -3786430.682 10 0 60086 85500.00000 0 -10559380.427 23227179.839 -561870.416 10 0 60087 0.00000 0 -10314783.138 23188961.541 2673587.584 10 0 60087 900.00000 0 -9944917.530 22759665.036 5857176.138 10 0 60087 1800.00000 0 -9507171.982 21933036.146 8927119.025 10 0 60087 2700.00000 0 -9059888.396 20716434.108 11823828.802 10 0 60087 3600.00000 0 -8659701.314 19130674.716 14491061.703 10 0 60087 4500.00000 0 -8358958.791 17209325.733 16877008.935 10 0 60087 5400.00000 0 -8203334.152 14997482.967 18935302.940 10 0 60087 6300.00000 0 -8229729.739 12550077.001 20625919.159 10 0 60087 7200.00000 0 -8464561.598 9929780.198 21915955.818 10 0 60087 8100.00000 0 -8922498.068 7204600.205 22780276.646 10 0 60087 9000.00000 0 -9605706.318 4445259.229 23202003.992 10 0 60087 9900.00000 0 -10503639.584 1722467.378 23172852.612 10 0 60087 10800.00000 0 -11593375.259 -895797.195 22693297.363 10 0 60087 11700.00000 0 -12840490.843 -3346888.785 21772571.108 10 0 60087 12600.00000 0 -14200442.134 -5575867.484 20428492.300 10 0 60087 13500.00000 0 -15620386.776 -7537546.939 18687124.988 10 0 60087 14400.00000 0 -17041377.352 -9198131.547 16582277.130 10 0 60087 15300.00000 0 -18400832.281 -10536375.109 14154846.430 10 0 60087 16200.00000 0 -19635180.759 -11544212.994 11452025.921 10 0 60087 17100.00000 0 -20682570.222 -12226841.982 8526384.539 10 0 60087 18000.00000 0 -21485521.790 -12602245.264 5434840.605 10 0 60087 18900.00000 0 -21993421.062 -12700183.610 2237548.590 10 0 60087 19800.00000 0 -22164738.419 -12560696.431 -1003278.658 10 0 60087 20700.00000 0 -21968884.291 -12232177.336 -4224588.341 10 0 60087 21600.00000 0 -21387620.378 -11769106.931 -7363722.217 10 0 60087 22500.00000 0 -20415966.724 -11229540.108 -10359642.142 10 0 60087 23400.00000 0 -19062565.988 -10672455.409 -13154121.965 10 0 60087 24300.00000 0 -17349489.384 -10155079.664 -15692881.927 10 0 60087 25200.00000 0 -15311492.428 -9730301.829 -17926643.206 10 0 60087 26100.00000 0 -12994751.784 -9444285.806 -19812082.077 10 0 60087 27000.00000 0 -10455136.248 -9334383.157 -21312665.513 10 0 60087 27900.00000 0 -7756084.150 -9427433.667 -22399352.672 10 0 60087 28800.00000 0 -4966175.670 -9738524.974 -23051149.464 10 0 60087 29700.00000 0 -2156500.837 -10270263.036 -23255506.450 10 0 60087 30600.00000 0 602067.909 -11012583.647 -23008553.306 10 0 60087 31500.00000 0 3241586.111 -11943112.521 -22315166.127 10 0 60087 32400.00000 0 5699619.222 -13028058.663 -21188866.951 10 0 60087 33300.00000 0 7921590.205 -14223603.503 -19651557.777 10 0 60087 34200.00000 0 9862796.755 -15477727.771 -17733094.394 10 0 60087 35100.00000 0 11490015.831 -16732399.841 -15470708.122 10 0 60087 36000.00000 0 12782630.311 -17926034.282 -12908286.294 10 0 60087 36900.00000 0 13733232.211 -18996117.967 -10095525.009 10 0 60087 37800.00000 0 14347678.669 -19881893.994 -7086969.992 10 0 60087 38700.00000 0 14644599.480 -20526991.105 -3940963.632 10 0 60087 39600.00000 0 14654377.783 -20881888.280 -718518.191 10 0 60087 40500.00000 0 14417647.424 -20906110.909 2517863.325 10 0 60087 41400.00000 0 13983370.719 -20570065.945 5705396.017 10 0 60087 42300.00000 0 13406577.897 -19856438.331 8782228.308 10 0 60087 43200.00000 0 12745863.699 -18761089.278 11688640.008 10 0 60087 44100.00000 0 12060746.806 -17293417.651 14368200.031 10 0 60087 45000.00000 0 11409003.538 -15476168.135 16768861.261 10 0 60087 45900.00000 0 10844088.338 -13344692.911 18843971.384 10 0 60087 46800.00000 0 10412749.956 -10945696.348 20553180.113 10 0 60087 47700.00000 0 10152944.015 -8335513.789 21863225.237 10 0 60087 48600.00000 0 10092130.251 -5577994.913 22748582.274 10 0 60087 49500.00000 0 10246026.648 -2742078.606 23191965.086 10 0 60087 50400.00000 0 10617873.554 100840.755 23184667.576 10 0 60087 51300.00000 0 11198239.549 2879646.972 22726739.550 10 0 60087 52200.00000 0 11965378.096 5526222.718 21826992.909 10 0 60087 53100.00000 0 12886120.899 7978044.619 20502837.481 10 0 60087 54000.00000 0 13917271.204 10180545.150 18779949.039 10 0 60087 54900.00000 0 15007439.108 12089143.312 16691775.272 10 0 60087 55800.00000 0 16099242.053 13670859.631 14278888.729 10 0 60087 56700.00000 0 17131777.951 14905448.379 11588198.837 10 0 60087 57600.00000 0 18043266.558 15786000.072 8672038.080 10 0 60087 58500.00000 0 18773747.182 16318989.592 5587140.170 10 0 60087 59400.00000 0 19267718.186 16523768.761 2393530.437 10 0 60087 60300.00000 0 19476605.913 16431525.751 -846649.397 10 0 60087 61200.00000 0 19360957.842 16083756.426 -4070358.286 10 0 60087 62100.00000 0 18892266.378 15530313.498 -7214890.172 10 0 60087 63000.00000 0 18054345.504 14827117.258 -10219100.554 10 0 60087 63900.00000 0 16844201.532 14033625.958 -13024600.554 10 0 60087 64800.00000 0 15272360.803 13210173.899 -15576894.617 10 0 60087 65700.00000 0 13362640.254 12415290.551 -17826439.397 10 0 60087 66600.00000 0 11151370.314 11703114.492 -19729603.205 10 0 60087 67500.00000 0 8686102.617 11121011.437 -21249507.709 10 0 60087 68400.00000 0 6023856.464 10707496.619 -22356736.212 10 0 60087 69300.00000 0 3228977.052 10490548.555 -23029895.556 10 0 60087 70200.00000 0 370694.365 10486384.469 -23256021.756 10 0 60087 71100.00000 0 -2479516.293 10698748.089 -23030822.445 10 0 60087 72000.00000 0 -5250663.203 11118738.970 -22358752.282 10 0 60087 72900.00000 0 -7874944.286 11725189.854 -21252920.529 10 0 60087 73800.00000 0 -10290319.210 12485575.812 -19734832.981 10 0 60087 74700.00000 0 -12442842.049 13357416.743 -17833973.379 10 0 60087 75600.00000 0 -14288659.055 14290114.372 -15587232.295 10 0 60087 76500.00000 0 -15795589.874 15227146.809 -13038194.196 10 0 60087 77400.00000 0 -16944227.695 16108528.770 -10236296.031 10 0 60087 78300.00000 0 -17728513.736 16873434.417 -7235873.125 10 0 60087 79200.00000 0 -18155763.145 17462872.821 -4095110.283 10 0 60087 80100.00000 0 -18246142.136 17822303.661 -874918.073 10 0 60087 81000.00000 0 -18031619.045 17904083.083 2362244.340 10 0 60087 81900.00000 0 -17554433.868 17669636.507 5553577.193 10 0 60087 82800.00000 0 -16865151.010 17091266.453 8637155.616 10 0 60087 83700.00000 0 -16020377.401 16153518.579 11553129.114 10 0 60087 84600.00000 0 -15080242.171 14854047.470 14244881.776 10 0 60087 85500.00000 0 -14105744.053 13203944.615 16660130.685 99